Vorticity
nan nan nan nan nan nan nan nan nan nan nan nan nan nan nan nan nan nan nan nan nan nan nan nan nan nan nan nan nan nan nan nan nan nan nan nan nan nan nan nan nan nan nan nan nan nan nan nan nan nan nan nan nan nan nan nan nan nan nan nan nan nan nan nan nan nan nan nan nan nan nan nan nan nan nan nan nan nan nan nan nan nan nan nan nan nan nan nan nan nan nan nan nan nan nan nan nan nan nan nan nan nan nan
nan 6 7 7 7 8 10 10 8 6 6 7 7 6 4 5 6 6 6 5 4 5 6 7 8 8 7 7 6 5 4 4 5 6 7 7 7 6 6 5 5 4 2 0 -1 -3 -6 -4 3 7 7 5 5 5 6 6 6 6 6 5 6 9 21 25 15 8 5 4 3 3 3 5 6 6 6 5 5 5 5 6 6 6 6 5 5 5 5 6 6 6 6 5 5 5 5 5 5 4 4 5 5 5 nan
nan 6 7 7 7 8 10 9 7 6 6 7 6 5 5 6 7 7 6 5 4 5 6 8 8 8 7 7 6 5 3 3 4 5 7 8 7 6 6 4 4 3 2 -0 -2 -4 -6 -3 3 7 7 5 5 6 6 6 6 6 5 5 7 13 24 22 13 8 6 5 3 3 3 4 5 5 5 5 5 5 5 5 6 6 6 5 5 5 5 5 5 5 5 5 5 5 5 5 5 5 5 5 6 6 nan
nan 6 6 6 7 8 9 8 7 6 5 6 5 5 5 7 7 7 6 4 4 5 7 8 8 7 6 6 6 5 4 3 4 5 7 8 8 7 4 3 3 2 1 1 -2 -8 -9 -1 5 8 7 6 6 6 6 6 6 6 5 6 9 17 26 20 10 7 6 5 4 3 3 3 5 6 6 5 5 4 5 5 5 6 5 5 5 5 4 4 4 4 5 5 5 5 5 5 5 5 5 5 6 6 nan
nan 7 5 5 7 8 8 8 7 6 4 5 5 4 5 6 7 7 6 5 5 6 8 9 9 7 5 6 6 5 5 4 4 5 6 7 7 6 3 2 2 3 3 2 -0 -5 -5 0 5 8 8 6 5 6 6 5 5 5 5 7 13 21 23 14 8 5 5 5 4 3 3 4 5 6 6 6 5 4 4 5 5 5 5 5 5 5 5 5 4 5 5 5 4 5 5 5 5 5 5 5 6 6 nan
nan 9 5 5 6 7 8 9 8 6 3 4 5 4 4 5 6 6 6 5 6 6 7 9 10 7 5 5 6 6 6 5 5 5 5 6 6 6 3 2 3 4 5 5 2 -1 -3 -1 5 8 9 6 6 7 6 4 4 5 6 9 16 21 18 11 6 5 5 5 4 4 4 4 5 6 6 6 5 5 4 4 5 4 4 5 5 5 5 5 5 5 4 5 4 5 5 5 5 4 5 5 5 5 nan
nan 13 7 5 5 7 8 9 8 6 4 4 5 5 5 5 5 5 6 6 6 6 7 9 10 8 7 6 6 6 6 6 5 5 5 6 6 6 4 4 4 5 6 6 4 0 -2 1 6 10 9 6 8 7 6 6 5 5 6 10 17 18 14 9 6 6 5 5 5 5 5 5 5 5 5 5 5 5 5 4 4 4 4 4 5 5 6 5 5 5 4 5 5 5 5 5 5 4 4 4 5 5 nan
nan 17 10 5 5 6 8 8 8 7 5 4 5 6 5 5 4 4 5 6 7 6 6 8 9 10 8 7 6 6 6 5 5 4 5 5 6 7 6 6 5 4 6 7 5 2 -2 1 6 11 9 5 9 8 6 5 5 5 6 11 16 16 12 8 8 6 5 5 5 6 6 6 5 4 4 4 5 5 5 4 4 4 4 4 5 5 5 5 5 5 5 6 6 6 6 5 5 5 5 5 5 5 nan
nan 19 12 7 5 6 5 7 7 7 5 4 5 6 6 5 4 3 5 7 7 7 6 7 8 10 9 7 6 6 6 5 4 4 4 5 7 8 8 7 5 4 6 7 5 1 -4 -2 6 12 9 6 10 9 5 3 4 5 7 13 18 18 12 8 8 6 5 5 6 7 7 6 6 5 4 4 5 5 5 5 5 4 4 5 5 5 5 4 5 5 6 6 6 6 6 5 5 5 5 5 5 5 nan
nan 19 14 8 6 5 3 6 7 7 5 5 5 6 6 6 4 3 5 7 8 8 7 7 8 9 8 7 7 6 6 4 4 3 4 6 8 11 10 5 4 5 6 7 5 -0 -7 -5 6 13 11 8 9 7 3 2 5 6 9 18 23 17 8 6 6 6 6 6 7 7 8 7 6 5 5 5 5 5 6 5 5 5 5 5 5 5 5 4 5 5 6 6 5 5 5 5 5 5 5 5 5 5 nan
nan 19 16 11 7 4 2 6 6 6 5 5 5 5 6 6 5 4 6 7 9 10 9 8 7 7 7 7 6 6 5 4 4 3 4 7 9 11 10 5 4 5 7 7 5 -1 -8 -5 5 13 13 11 7 5 2 3 6 6 12 24 23 13 6 5 6 6 6 6 7 7 7 7 6 5 5 5 5 5 6 5 5 5 5 5 5 5 4 5 5 5 5 5 4 4 4 5 5 5 5 5 5 5 nan
nan 16 16 16 10 4 1 5 5 6 6 5 5 5 6 6 6 6 6 7 9 11 11 10 8 6 6 6 6 6 5 4 3 4 5 8 10 10 8 5 3 4 6 7 3 -3 -8 -3 6 14 16 11 5 2 2 5 7 6 17 27 19 11 6 5 5 6 6 6 6 6 6 6 6 6 5 5 5 5 5 5 5 5 5 5 5 4 5 5 5 5 5 4 4 3 4 4 5 5 5 5 5 5 nan
nan 16 14 16 13 6 2 2 3 5 6 4 5 5 6 6 6 7 7 8 10 11 11 12 11 7 5 6 6 5 4 3 4 5 7 9 9 8 6 4 3 3 5 4 -1 -7 -5 3 9 15 14 10 5 3 4 6 7 8 22 28 15 8 6 5 5 6 5 5 5 5 5 5 5 5 5 5 5 5 5 5 5 5 6 6 5 5 5 5 5 5 4 4 4 4 4 5 5 5 5 5 5 5 nan
nan 22 19 15 14 10 5 1 1 4 6 4 6 6 7 7 7 8 8 10 10 9 9 11 12 7 5 6 5 5 4 3 4 6 8 9 8 7 6 4 3 2 1 -3 -7 -5 2 7 10 12 12 10 7 5 4 5 7 14 24 22 12 8 6 5 5 5 4 4 5 4 4 4 5 5 6 5 5 5 5 5 5 5 6 6 6 6 5 5 5 5 4 4 4 4 5 5 6 6 5 5 5 6 nan
nan 26 27 22 16 12 7 1 1 4 5 4 6 7 8 8 8 9 8 9 8 6 6 9 9 7 6 6 6 6 4 4 5 7 9 9 8 6 6 5 3 1 -6 -10 -4 3 7 9 9 9 11 12 8 6 4 5 10 20 24 16 10 7 6 6 6 6 5 4 4 4 4 4 5 6 6 6 6 6 5 5 5 6 7 7 7 6 5 5 5 5 5 4 4 4 5 5 6 6 5 5 5 6 nan
nan 22 28 27 19 13 8 3 2 3 3 5 6 7 8 9 9 9 8 8 7 5 5 6 6 5 5 6 6 4 3 4 5 6 9 8 8 7 6 5 1 -4 -11 -7 2 8 9 8 7 7 11 12 8 6 4 6 13 24 23 13 9 7 6 6 6 7 7 5 4 3 3 5 6 6 6 6 6 6 6 5 5 6 6 7 6 6 5 4 5 5 5 4 4 4 4 5 5 5 4 4 5 5 nan
nan 17 24 27 23 14 7 4 3 2 3 6 6 7 9 9 9 9 9 8 6 5 5 5 4 4 5 6 3 -2 -1 4 4 6 8 8 7 7 7 3 -2 -8 -7 1 5 8 9 7 6 7 12 12 7 6 5 9 17 24 20 11 8 6 6 6 6 8 8 7 5 4 4 5 6 7 7 6 6 6 5 5 5 5 6 6 5 5 4 4 4 5 5 5 4 4 4 4 4 4 4 3 4 5 nan
nan 15 22 26 27 16 6 5 3 2 2 7 7 8 9 9 9 9 10 8 7 6 5 4 4 4 5 3 -2 -7 -3 4 3 5 7 7 6 6 3 -2 -5 -6 0 5 7 7 8 7 6 7 13 12 7 6 6 13 21 22 16 9 8 7 6 6 6 7 8 8 6 5 5 6 7 7 6 6 5 5 5 4 4 4 5 5 4 4 4 4 4 5 5 5 4 4 3 3 3 3 3 3 3 4 nan
nan 15 21 29 30 20 9 6 4 2 2 5 6 8 10 9 8 8 9 9 8 7 5 4 4 4 5 -0 -6 -6 1 4 3 4 6 7 5 2 -3 -5 -3 1 5 8 9 8 9 9 7 7 13 13 9 6 8 16 22 20 14 9 8 7 7 6 6 5 7 7 6 6 6 7 7 6 5 5 4 4 4 4 4 4 4 4 4 4 3 3 4 5 5 5 4 4 4 3 3 4 4 4 4 4 nan
nan 21 25 32 35 28 16 10 7 4 0 -1 3 8 9 8 7 8 9 9 8 7 6 4 2 2 -1 -5 -4 -1 4 5 4 5 6 5 4 0 -3 -2 2 5 7 9 9 9 10 9 7 7 12 12 10 7 9 18 22 19 12 8 8 8 8 7 6 5 5 5 5 5 6 7 6 5 4 4 3 3 3 3 4 4 4 4 4 4 4 4 4 5 5 5 4 4 4 4 4 4 5 5 5 5 nan
nan 19 26 33 39 37 29 22 19 12 3 -5 -3 5 9 9 7 8 8 7 8 8 6 -1 -4 -2 -2 -2 2 4 5 5 5 6 7 6 4 3 2 3 5 6 8 9 9 10 11 9 9 8 9 10 9 8 11 19 22 18 11 8 8 8 8 7 6 5 5 4 4 5 6 6 5 4 3 3 3 3 2 3 4 4 5 5 5 5 5 5 5 5 5 5 4 4 4 4 5 5 6 6 6 6 nan
nan 11 15 22 30 35 34 31 30 23 13 -2 -8 -2 5 9 9 8 4 6 10 11 4 -6 -5 -2 1 4 4 5 4 4 5 6 7 7 6 5 5 5 5 7 8 9 9 11 11 8 9 10 8 8 8 9 17 22 18 14 10 8 8 8 8 7 6 5 5 4 4 5 5 5 4 4 3 3 3 3 2 3 4 5 5 6 6 6 6 5 5 5 5 5 4 4 5 5 5 6 6 7 7 6 nan
nan 8 8 10 15 21 25 26 27 24 21 6 -7 -5 4 8 9 7 3 7 13 15 4 -5 -2 1 4 5 5 5 5 5 6 7 7 6 6 6 5 5 6 7 8 9 10 11 10 8 10 10 8 7 7 9 18 21 15 12 10 8 8 8 7 6 6 6 5 5 4 4 4 4 4 4 4 4 4 3 3 4 5 5 6 6 6 6 6 6 5 5 5 4 4 5 5 6 6 6 7 7 7 7 nan
nan 8 7 7 8 11 15 17 18 19 23 10 -4 -5 5 9 9 5 3 8 13 13 6 -0 -1 1 5 7 7 7 7 7 7 7 7 7 6 6 6 7 6 7 8 10 10 10 8 9 10 10 9 8 8 10 17 19 16 12 10 10 9 8 6 5 5 5 5 5 5 4 4 4 5 6 5 5 5 4 4 5 5 5 6 6 6 6 6 5 5 5 4 4 4 5 5 6 6 7 7 7 7 6 nan
nan 7 7 7 8 9 12 13 14 16 22 13 -1 -2 6 9 8 4 2 7 11 11 8 4 2 3 7 9 7 8 8 7 7 7 8 9 8 6 6 6 6 7 9 10 9 8 8 10 10 9 9 9 9 11 17 19 16 11 9 11 11 9 7 5 4 4 5 5 5 4 4 5 5 6 6 6 6 5 5 6 6 6 6 6 6 6 5 5 4 4 4 5 5 5 6 6 7 7 7 7 7 6 nan
nan 6 7 7 8 9 11 12 13 15 19 15 3 3 9 8 6 3 3 6 8 11 9 8 7 7 9 9 7 7 7 7 8 8 9 9 8 6 5 5 5 7 9 9 9 8 9 10 9 9 9 9 9 11 17 20 16 11 9 11 11 10 8 6 4 4 5 5 5 5 4 4 5 6 7 6 6 6 6 7 6 6 6 6 6 6 5 4 4 4 4 5 5 6 6 7 7 7 7 6 6 6 nan
nan 6 7 7 8 9 11 13 14 14 17 16 4 -0 5 9 7 6 4 4 6 10 11 10 8 6 8 8 7 6 6 7 8 8 8 7 6 5 5 4 5 7 8 8 9 9 9 9 9 9 8 8 8 9 17 21 16 12 12 12 11 10 9 7 6 5 5 5 5 5 5 4 4 5 5 5 6 6 7 7 6 6 6 6 6 6 5 4 4 4 5 5 6 6 7 7 7 6 6 6 6 5 nan
nan 7 7 7 7 8 10 13 14 14 19 20 8 -4 -4 7 8 10 3 2 8 10 10 7 6 5 5 7 8 6 6 7 7 8 7 5 5 6 5 4 5 6 8 9 9 9 9 10 9 8 7 7 8 8 14 19 17 14 15 15 14 12 10 7 7 6 6 6 6 6 5 4 4 4 4 5 5 6 7 6 6 6 5 6 6 6 6 5 5 5 5 5 6 7 7 7 6 6 6 5 5 5 nan
nan 7 7 7 7 6 9 12 14 15 19 22 15 6 -6 1 10 12 1 -0 8 10 8 7 6 7 6 6 8 8 7 8 9 8 4 4 6 7 6 4 4 6 9 11 10 8 9 10 9 7 7 7 7 8 11 15 17 15 15 16 17 16 13 10 8 8 7 8 8 7 5 4 4 4 4 4 5 6 6 6 5 5 5 6 6 6 6 6 6 6 5 6 6 7 7 6 6 5 5 5 5 5 nan
nan 7 8 8 7 6 7 10 13 14 15 18 19 17 -1 -1 14 14 3 0 6 10 10 9 8 9 6 5 8 8 8 8 8 8 6 4 6 7 5 4 5 7 10 10 8 8 9 10 8 5 5 6 6 7 8 12 16 16 14 14 17 18 16 13 11 9 10 11 10 8 6 5 4 4 4 5 5 6 6 6 5 5 5 6 6 6 6 6 6 6 6 6 7 7 7 6 6 5 5 5 5 5 nan
nan 7 8 8 7 7 7 9 13 15 14 16 19 19 2 -0 17 16 6 2 6 10 10 8 7 7 6 5 7 8 9 8 8 9 7 5 6 6 5 6 6 7 8 8 7 8 10 9 6 3 5 7 7 7 7 10 13 14 12 10 13 15 16 15 13 11 12 12 11 9 7 5 4 4 4 5 5 6 6 6 6 5 5 6 6 6 5 6 6 6 6 6 6 7 7 6 5 5 5 5 5 5 nan
nan 8 8 8 8 8 7 9 11 14 15 18 22 21 5 -2 11 16 10 4 7 10 9 7 6 6 6 6 7 9 10 8 7 9 7 5 6 6 5 6 6 7 8 8 8 8 8 8 7 6 7 8 6 6 7 9 10 13 11 10 10 11 13 13 12 12 13 13 11 8 6 5 4 5 5 5 6 6 6 6 6 5 5 5 5 5 5 6 6 6 6 6 7 7 7 6 6 5 5 5 5 5 nan
nan 8 8 8 9 8 7 7 8 10 12 17 22 23 10 -4 -0 11 16 9 10 10 9 7 7 8 7 6 6 9 10 9 7 8 7 4 6 5 6 6 7 8 10 9 8 7 8 9 9 8 8 7 5 6 7 9 9 9 10 11 10 10 10 10 9 10 11 12 10 8 6 6 5 5 6 6 6 6 6 6 6 6 6 6 5 5 5 6 6 6 6 7 7 7 7 7 6 5 5 5 5 5 nan
nan 8 8 8 8 9 8 8 7 8 9 14 20 25 17 -2 -9 0 12 11 11 11 10 8 7 7 7 6 6 8 10 10 7 7 7 6 6 6 6 5 7 10 11 10 8 7 8 9 9 8 8 8 6 5 6 8 8 7 9 11 11 11 9 7 7 8 9 9 9 8 8 8 7 6 6 6 7 6 6 6 7 7 6 6 6 6 6 6 6 7 7 7 7 7 7 7 6 6 5 5 5 5 nan
nan 7 8 8 8 9 9 9 8 7 9 12 19 27 24 5 -10 -9 3 8 7 8 9 10 8 6 6 7 7 9 11 10 7 7 7 6 5 5 5 5 7 11 12 10 7 6 8 8 8 9 9 8 6 5 5 7 7 7 9 10 9 11 10 6 6 7 10 10 9 9 9 9 7 7 7 7 7 6 6 6 7 7 7 6 6 5 6 6 6 7 7 7 7 7 7 7 6 6 5 5 5 5 nan
nan 8 7 8 8 9 8 8 8 9 10 11 17 26 29 14 -3 -8 -3 3 4 7 9 9 8 6 6 8 9 9 9 8 6 7 7 6 4 3 4 6 8 11 11 8 6 7 8 8 8 9 9 8 5 5 5 6 7 8 9 8 8 8 8 7 6 8 11 10 11 11 10 10 9 8 8 8 7 7 6 6 7 7 7 6 6 5 5 6 6 6 7 6 7 7 7 7 6 6 5 5 5 5 nan
nan 8 7 8 8 7 7 7 8 10 9 8 12 18 25 21 10 2 -1 2 4 6 7 8 8 7 7 8 9 8 7 6 6 7 7 7 5 4 5 8 9 11 10 7 6 8 9 9 8 9 9 7 6 7 6 5 7 8 8 8 7 7 6 7 8 9 10 11 11 11 10 11 11 11 10 9 8 7 6 7 7 7 7 6 6 5 6 6 6 6 6 6 6 7 7 6 6 6 5 5 5 5 nan
nan 6 7 7 7 7 5 7 8 8 6 6 8 11 16 19 17 10 3 3 5 5 6 8 7 6 5 7 8 9 8 7 7 8 8 7 5 4 6 8 9 11 9 7 8 10 10 8 8 9 9 8 8 7 6 6 8 8 7 8 8 7 7 8 8 8 9 12 12 11 10 13 13 14 13 11 10 8 7 7 7 7 7 6 6 5 6 6 6 6 5 5 6 6 6 6 6 5 5 5 5 5 nan
nan 6 6 7 7 5 5 7 8 6 4 6 7 10 11 15 17 15 7 5 6 5 6 9 7 6 5 7 8 10 9 7 7 8 8 7 6 5 6 8 9 10 9 8 8 10 9 8 9 10 9 8 7 7 6 8 9 7 6 8 9 8 8 9 8 6 6 10 14 17 14 14 14 15 15 13 12 10 9 8 8 7 7 6 6 6 6 6 6 5 5 5 5 5 5 5 5 5 5 5 5 5 nan
nan 9 6 6 6 5 7 9 7 3 3 6 7 10 11 13 16 16 9 5 7 7 8 8 7 7 6 5 7 9 8 8 8 8 9 8 6 6 7 9 9 9 9 9 8 8 9 10 10 10 8 7 7 7 9 10 9 6 4 6 9 10 10 10 10 7 4 7 13 21 23 18 15 14 15 14 13 11 10 9 8 8 8 7 7 6 6 6 5 5 5 4 5 5 5 5 5 5 5 5 5 6 nan
nan 15 10 7 7 7 10 8 4 1 4 6 7 10 12 13 17 16 9 3 6 8 10 8 7 7 6 6 7 8 8 8 8 9 9 8 8 8 8 10 10 10 10 9 8 8 9 10 9 8 7 7 8 10 13 12 9 6 4 5 9 11 12 12 11 7 5 6 10 18 26 22 14 13 13 13 12 11 10 9 9 9 9 9 8 7 7 6 6 6 5 4 4 4 4 4 4 4 4 5 5 6 nan
nan 18 15 11 9 10 10 7 2 2 5 7 8 10 11 14 16 14 7 3 6 10 10 9 8 6 6 7 7 8 8 7 8 9 8 8 9 9 10 11 12 12 11 9 8 8 9 9 8 7 7 8 10 12 14 13 12 10 7 5 7 10 11 11 10 8 7 7 10 14 23 21 14 12 11 10 10 9 9 9 9 10 11 10 9 8 7 7 7 6 5 5 4 4 4 3 4 4 4 5 5 5 nan
nan 15 18 16 11 11 10 6 4 3 5 7 8 11 10 13 13 8 6 5 8 9 10 10 8 5 6 8 8 7 7 7 7 8 8 8 9 10 12 12 12 12 11 11 10 10 10 9 8 8 8 9 10 11 11 13 14 13 10 7 7 9 9 9 8 10 10 10 12 13 18 17 15 11 9 9 8 8 8 8 9 10 11 11 10 9 7 7 7 7 6 5 4 4 4 3 3 4 4 5 5 5 nan
nan 12 19 19 14 12 10 6 4 4 6 8 10 12 11 13 9 4 5 7 8 8 9 10 10 7 6 7 9 8 6 6 7 8 9 10 10 10 11 10 9 10 11 12 12 13 13 11 10 9 9 9 9 8 8 10 12 11 10 10 11 11 10 8 8 10 10 11 12 14 15 14 14 13 10 7 7 7 7 7 8 9 10 11 10 9 8 8 7 7 7 6 5 5 4 4 3 4 4 5 6 5 nan
nan 10 16 19 19 16 11 5 4 4 6 8 11 12 14 13 9 6 5 7 8 8 9 10 10 9 7 8 10 8 5 6 8 10 10 10 9 8 7 7 7 8 10 11 12 13 14 13 11 9 9 9 8 6 6 8 8 7 9 11 12 13 12 10 10 10 8 8 11 15 15 13 12 13 11 8 7 8 9 9 8 8 8 9 9 10 9 9 9 10 8 7 6 6 6 5 5 5 5 5 6 6 nan
nan 10 11 16 21 22 15 5 3 4 6 7 9 10 12 11 11 10 8 7 7 9 10 10 9 8 9 10 10 8 7 9 10 9 7 7 6 5 7 7 8 8 8 9 10 12 12 12 11 9 10 10 9 8 7 7 6 6 7 9 11 12 13 11 10 9 7 7 11 14 15 14 13 12 10 8 8 11 14 14 12 10 8 7 8 10 9 10 12 13 11 9 8 9 8 7 7 7 6 5 6 9 nan
nan 10 8 11 18 24 19 8 5 6 7 8 8 9 9 7 9 10 10 8 7 7 9 10 8 7 9 9 7 7 9 10 8 6 5 6 5 5 5 7 8 8 8 8 9 11 11 10 9 9 9 9 9 9 9 8 6 6 6 7 8 10 10 10 9 8 7 8 11 14 14 12 11 11 11 10 9 11 13 15 15 14 11 8 7 8 9 10 13 15 13 9 8 9 9 8 9 10 9 8 8 11 nan
nan 10 8 8 13 18 19 14 10 8 7 8 8 9 8 7 7 5 5 8 8 7 9 11 10 7 6 6 5 8 10 10 8 6 5 3 3 4 3 5 6 7 7 8 9 10 12 11 9 8 7 8 8 9 10 10 8 7 6 6 6 7 7 8 8 8 8 10 11 13 13 11 9 10 12 13 12 11 10 11 14 15 14 11 9 9 10 11 13 14 12 9 8 8 8 8 10 11 11 10 11 13 nan
nan 11 9 8 10 13 15 17 16 11 7 7 9 12 14 11 6 1 2 6 7 7 8 9 11 10 5 2 5 8 11 10 8 6 3 1 0 1 2 3 4 5 6 6 7 7 9 10 9 8 8 8 8 9 10 10 9 8 7 7 6 5 5 7 7 8 9 10 11 11 11 10 9 9 11 13 14 13 10 8 10 13 15 13 12 13 14 13 13 14 13 10 8 7 7 8 10 12 12 13 14 15 nan
nan 11 10 9 8 9 11 14 18 17 11 9 13 15 17 12 5 1 5 8 6 2 4 8 10 10 4 1 6 11 13 9 6 1 -0 3 2 1 2 2 3 3 4 4 5 5 5 7 8 9 10 10 9 9 10 10 10 9 8 8 6 5 4 5 6 7 8 7 8 8 9 10 10 9 9 11 13 14 12 9 9 9 10 12 13 16 19 18 16 14 13 12 10 8 7 8 10 11 13 14 17 17 nan
nan 10 10 10 9 8 8 11 15 18 15 12 13 14 16 13 5 2 7 13 8 1 1 8 7 6 4 6 9 14 15 7 2 -5 -0 7 7 6 4 2 2 1 2 3 3 3 4 3 4 6 10 11 10 10 10 10 9 9 9 8 7 7 5 5 6 7 6 4 4 5 7 9 10 9 8 9 11 14 14 12 10 9 8 9 9 12 15 19 21 18 15 14 12 9 9 9 9 10 12 15 18 18 nan
nan 11 11 11 10 9 8 9 12 15 16 14 12 12 15 13 7 3 8 13 9 5 3 7 9 5 4 8 12 17 14 6 1 -2 4 8 6 6 4 3 2 2 3 2 2 2 1 1 1 1 5 10 11 11 10 10 8 8 9 9 8 7 7 7 7 8 6 4 3 3 5 7 8 8 8 9 10 12 15 16 13 10 9 9 7 7 8 13 17 20 19 15 14 11 11 11 10 9 11 14 17 17 nan
nan 12 14 12 10 9 9 8 9 12 17 17 13 12 13 12 8 6 7 8 8 7 8 10 9 7 6 7 12 16 12 5 2 -1 3 7 4 3 2 3 5 8 6 2 1 2 2 2 1 1 1 6 9 11 12 11 9 8 9 9 8 7 7 8 8 8 7 5 4 4 5 6 6 6 8 10 11 11 13 15 15 13 11 10 9 7 7 11 15 16 14 14 16 14 12 11 10 10 11 14 16 15 nan
nan 10 14 15 12 10 9 8 9 11 16 18 17 15 15 13 9 8 8 7 7 7 11 11 8 7 7 8 9 12 11 5 2 1 8 8 4 1 2 4 7 9 8 6 5 4 5 5 4 2 1 4 6 7 10 11 10 9 8 9 9 8 8 8 8 8 7 6 5 5 6 6 6 6 8 11 10 10 10 12 14 16 14 12 11 9 8 12 15 13 11 13 15 16 16 14 12 12 13 15 14 12 nan
nan 10 13 14 14 12 9 9 10 11 13 16 18 19 19 15 10 11 12 12 10 7 7 9 10 5 4 8 8 9 11 7 2 5 11 9 4 -1 0 2 3 5 8 8 8 8 10 8 5 2 2 5 6 5 5 8 10 11 10 9 10 10 9 9 9 8 7 6 6 6 6 6 5 6 9 11 9 8 8 10 13 17 17 15 13 12 11 11 11 9 11 19 22 18 17 18 16 16 18 18 14 10 nan
nan 9 11 11 13 15 13 9 10 10 12 13 14 16 16 15 14 15 17 17 14 8 2 6 10 6 5 7 9 8 7 7 6 10 12 9 3 -2 -0 3 3 3 6 7 8 9 12 9 1 1 4 6 8 8 5 6 8 10 9 8 10 11 11 11 10 9 7 7 7 7 6 6 6 6 8 8 8 7 8 10 12 15 18 17 14 12 12 10 8 8 11 18 25 27 21 17 18 20 22 19 14 9 nan
nan 6 8 10 12 15 15 11 9 10 11 12 12 11 12 14 15 15 15 16 15 10 4 4 11 12 9 7 9 8 5 6 8 11 10 8 5 3 9 14 9 6 5 8 8 9 11 8 1 3 7 6 7 7 7 6 7 7 7 7 8 10 12 12 11 10 8 8 8 8 7 7 7 7 6 7 7 7 8 10 10 12 17 18 15 12 13 12 9 8 10 13 20 31 29 19 21 22 23 18 12 8 nan
nan 6 6 9 10 13 15 13 11 10 10 10 12 12 10 12 14 15 14 13 14 13 7 3 8 13 11 7 8 10 7 4 5 8 6 2 4 8 15 16 12 14 15 15 16 15 11 6 5 6 8 5 5 5 6 5 5 5 5 7 8 9 9 10 11 11 10 10 10 9 8 7 7 8 7 7 8 6 7 9 9 11 15 18 18 14 13 13 10 8 10 15 19 28 28 23 22 21 19 13 9 7 nan
nan 10 7 8 9 11 12 13 12 11 9 10 12 12 10 10 12 14 15 15 14 14 7 2 5 7 10 9 6 9 10 5 2 5 3 -1 3 9 11 10 9 13 18 21 22 19 9 4 5 7 7 5 4 4 5 5 5 5 5 6 8 10 8 7 8 9 9 9 10 11 10 8 7 8 9 8 8 7 7 8 10 11 14 17 19 16 14 13 12 9 13 19 21 24 22 20 20 19 15 9 7 6 nan
nan 12 9 6 8 11 11 11 12 12 10 10 11 10 10 9 11 12 15 17 15 12 7 5 4 1 6 10 6 7 9 7 5 5 1 1 3 8 9 7 6 7 13 19 18 14 5 4 9 12 9 8 6 5 5 5 6 7 5 5 7 9 8 5 6 7 7 7 9 10 10 9 8 8 9 9 9 8 7 6 9 11 12 14 16 16 14 14 14 13 13 17 21 21 17 15 16 15 12 8 6 6 nan
nan nan nan nan nan nan nan nan nan nan nan nan nan nan nan nan nan nan nan nan nan nan nan nan nan nan nan nan nan nan nan nan nan nan nan nan nan nan nan nan nan nan nan nan nan nan nan nan nan nan nan nan nan nan nan nan nan nan nan nan nan nan nan nan nan nan nan nan nan nan nan nan nan nan nan nan nan nan nan nan nan nan nan nan nan nan nan nan nan nan nan nan nan nan nan nan nan nan nan nan nan nan nan
CAPE
905 1363 1940 2314 2336 2336 2121 2050 2088 2088 2258 2121 1942 1942 1976 1913 1913 1792 1669 1510 1510 1450 1493 1537 1379 1379 1225 1065 1012 1012 1001 992 994 994 1096 1299 1299 1519 1470 1376 1376 954 648 434 199 199 4 nan nan nan nan nan nan nan nan nan nan nan nan nan nan nan nan 254 412 412 415 443 559 559 524 377 230 230 129 77 77 43 23 23 23 24 28 29 34 34 34 31 30 30 33 35 37 37 36 35 35 34 31 29 29 27 26
886 1050 1609 2141 2211 2211 2000 2087 2183 2183 2220 2138 2018 2018 1998 1933 1933 1814 1697 1535 1535 1523 1618 1659 1345 1345 1191 1031 977 977 1011 1002 1054 1054 1110 1262 1262 1329 1345 1313 1313 975 664 440 184 184 1 nan nan nan nan nan nan nan nan nan nan nan nan nan nan nan 2 452 392 392 367 394 499 499 577 462 327 327 208 163 163 91 34 28 28 32 38 41 33 33 34 33 32 32 33 34 36 36 34 33 33 31 28 25 25 23 21
869 842 1289 1870 2048 2048 1923 2068 2213 2213 2235 2100 2038 2038 2019 1899 1899 1785 1723 1506 1506 1596 1690 1627 1310 1310 1105 996 987 987 975 1063 1065 1065 1074 1134 1134 1253 1248 1275 1275 1013 710 447 209 209 14 nan nan nan nan nan nan nan nan nan nan nan nan nan nan nan 108 438 346 346 291 315 404 404 589 550 372 372 304 224 224 156 68 54 54 52 66 45 31 31 32 33 32 32 32 32 33 33 30 30 30 27 26 26 26 25 22
946 784 1080 1546 1821 1821 1889 1993 2139 2139 2205 2065 2055 2055 2040 1972 1972 1857 1742 1523 1523 1666 1763 1595 1277 1277 1071 1008 951 951 987 1079 1081 1081 1094 1116 1116 1175 1159 1244 1244 1063 758 454 284 284 nan nan nan nan nan nan nan nan nan nan nan nan nan nan nan 4 361 421 303 303 226 224 296 296 483 644 492 492 319 235 235 168 89 59 59 54 45 33 29 29 28 31 33 33 31 31 30 30 27 27 27 29 29 30 30 30 26
966 757 821 1217 1597 1597 1894 1967 2013 2013 2077 2040 2073 2073 2056 1991 1991 1873 1758 1590 1590 1734 1786 1564 1194 1194 1038 929 963 963 1005 1049 1050 1050 1069 1095 1095 1094 1146 1217 1217 1078 764 430 216 216 nan nan nan nan nan nan nan nan nan nan nan nan nan 2 2 97 505 403 261 261 191 169 182 182 332 615 470 470 306 170 170 132 97 65 65 51 36 32 30 30 29 30 30 30 28 26 27 27 27 28 28 30 33 32 32 29 26
1007 733 667 905 1414 1414 1807 1943 1927 1927 1951 1967 2040 2040 2073 2061 2061 1945 1828 1659 1659 1805 1751 1484 1164 1164 958 943 932 932 976 1021 1068 1068 1039 1063 1063 1063 1173 1139 1139 959 664 318 154 154 3 nan nan nan nan nan nan nan nan nan nan nan nan 3 3 284 592 354 272 272 181 117 113 113 211 440 381 381 236 118 118 87 73 59 59 46 38 33 29 29 28 26 24 24 22 22 24 24 27 28 28 30 31 29 29 26 23
986 757 559 654 1237 1237 1696 1872 1837 1837 1871 2001 2067 2067 2097 2082 2082 2072 2007 1836 1836 1881 1771 1413 1139 1139 931 869 901 901 994 993 988 988 951 1028 1028 1134 1182 1105 1105 773 438 199 80 80 2 nan nan nan nan nan nan nan nan nan nan nan nan 1 1 541 577 371 257 257 191 123 84 84 139 274 276 276 177 79 79 52 43 42 42 43 38 33 30 30 26 21 17 17 16 22 26 26 28 28 28 27 25 25 25 24 20
863 734 495 426 967 967 1595 1768 1854 1854 1948 2084 2102 2102 2071 2105 2105 2096 2084 1966 1966 1961 1738 1494 1119 1119 913 801 870 870 962 964 912 912 866 984 984 1100 1152 979 979 640 277 126 55 55 7 nan nan nan nan nan nan nan nan nan nan nan nan 0 0 522 594 364 247 247 223 153 88 88 130 213 210 210 123 62 62 40 36 35 35 36 33 29 24 24 19 14 15 15 20 27 31 31 29 27 27 25 23 21 21 19 17
707 699 515 338 709 709 1458 1786 1871 1871 2017 2110 2246 2246 2156 2081 2081 2126 2167 2045 2045 1934 1763 1505 1147 1147 855 786 801 801 884 889 842 842 789 939 939 1113 1076 869 869 447 193 85 41 41 13 nan nan nan nan nan nan nan nan nan nan nan nan nan nan 314 574 378 262 262 285 214 140 140 160 227 176 176 134 70 70 46 37 35 35 32 27 22 17 17 11 12 20 20 26 34 30 30 28 26 26 23 21 19 19 18 16
492 645 495 304 479 479 1310 1773 1886 1886 2030 2182 2331 2331 2246 2114 2114 2104 2091 1968 1968 1908 1740 1411 1014 1014 825 810 781 781 815 781 737 737 764 944 944 1079 1050 653 653 313 142 69 46 46 19 nan nan nan nan nan nan nan nan nan nan nan nan nan nan 478 578 390 300 300 355 302 244 244 265 267 167 167 122 90 90 53 38 34 34 28 20 13 8 8 7 14 25 25 34 35 32 32 27 25 25 24 21 17 17 13 12
378 577 522 291 286 286 1002 1597 1852 1852 1993 2200 2357 2357 2334 2149 2149 2028 1964 1844 1844 1778 1663 1283 981 981 794 788 723 723 714 683 677 677 740 909 909 1047 851 464 464 223 100 56 41 41 30 nan nan nan nan nan nan nan nan nan nan nan nan 1 1 486 522 393 336 336 429 428 390 390 356 252 134 134 109 135 135 102 41 34 34 27 19 8 4 4 7 20 30 30 34 31 26 26 24 23 23 23 20 15 15 12 11
375 534 575 260 228 228 694 1375 1783 1783 1909 2112 2323 2323 2310 2181 2181 2003 1734 1626 1626 1670 1543 1207 902 902 810 759 702 702 657 627 620 620 754 879 879 929 628 351 351 137 80 42 45 45 10 nan nan nan nan nan nan nan nan nan nan nan nan 101 101 434 463 373 318 318 440 504 494 494 370 215 84 84 99 129 129 127 48 37 37 30 22 15 7 7 12 25 33 33 33 26 23 23 22 23 23 24 19 12 12 10 10
389 501 535 229 173 173 351 1113 1720 1720 1829 2026 2179 2179 2230 2101 2101 1870 1608 1367 1367 1464 1374 1140 829 829 784 695 644 644 602 571 635 635 769 856 856 731 463 246 246 108 57 29 33 33 nan nan nan nan nan nan nan nan nan nan nan nan nan 334 334 386 411 324 278 278 449 509 442 442 328 141 62 62 44 86 86 57 41 38 38 36 32 26 20 20 23 28 31 31 29 24 18 18 18 23 23 26 17 10 10 10 13
360 403 320 174 164 164 236 800 1433 1433 1810 1943 2042 2042 2041 1911 1911 1684 1484 1308 1308 1298 1245 1081 770 770 719 633 588 588 514 512 577 577 706 711 711 581 344 178 178 110 45 20 2 2 nan nan nan nan nan nan nan nan nan nan nan nan 1 318 318 400 365 307 260 260 370 456 394 394 263 93 39 39 36 38 38 37 34 36 36 37 38 36 32 32 33 36 34 34 26 20 17 17 20 23 23 24 18 14 14 15 14
255 162 115 112 121 121 150 492 1136 1136 1679 1864 1910 1910 1850 1669 1669 1396 1367 1235 1235 1180 1062 972 726 726 628 578 501 501 463 429 521 521 572 576 576 450 238 131 131 82 54 nan nan nan nan nan nan nan nan nan nan nan nan nan nan nan 108 304 304 384 377 294 242 242 297 347 322 322 179 66 37 37 34 33 33 31 31 34 34 37 40 49 51 51 51 41 36 36 26 20 22 22 25 25 25 24 19 17 17 17 15
10 27 28 97 106 106 132 262 838 838 1528 1742 1829 1829 1766 1433 1433 1125 1236 1234 1234 1134 958 756 662 662 579 491 449 449 352 382 374 374 418 419 419 282 149 90 90 57 23 nan nan nan nan nan nan nan 3 nan nan nan nan nan nan nan 321 346 346 368 424 422 278 278 259 254 233 233 124 58 40 40 37 32 32 29 30 33 33 37 47 57 60 60 48 44 38 38 26 22 24 24 28 29 29 27 20 21 21 22 23
1 nan 4 95 59 59 98 190 594 594 1308 1677 1704 1704 1587 1305 1305 1011 1113 1158 1158 1039 887 692 602 602 523 411 371 371 88 150 270 270 228 207 207 128 62 33 33 2 nan nan nan nan nan nan nan nan 35 nan nan nan nan nan nan 1 337 360 360 413 573 640 499 499 297 216 155 155 97 102 84 84 51 43 43 36 33 35 35 35 42 43 46 46 54 41 36 36 28 24 26 26 28 28 28 24 18 19 19 21 25
1 nan 57 59 58 58 55 130 328 328 1095 1610 1631 1631 1463 1186 1186 997 1041 1079 1079 997 806 637 537 537 440 336 87 87 28 14 63 63 83 113 113 52 19 1 1 nan nan nan nan nan nan nan nan nan 65 nan nan nan nan nan nan 18 382 345 345 429 627 900 701 701 398 206 118 118 122 170 175 175 134 77 77 61 48 42 42 38 40 40 41 41 42 39 37 37 29 27 26 26 27 24 24 18 14 12 12 17 23
5 19 38 69 60 60 48 79 225 225 846 1509 1608 1608 1387 1121 1121 968 1017 997 997 920 775 650 483 483 361 240 33 33 nan 0 3 3 14 21 21 5 nan nan nan nan nan nan nan nan nan nan 0 0 84 2 nan nan nan nan nan 153 366 360 360 446 685 967 845 845 514 243 148 148 174 225 204 204 162 122 122 84 58 47 47 42 36 39 35 35 38 38 35 35 31 31 28 28 23 18 18 14 12 9 9 13 19
25 39 49 69 69 69 83 70 55 55 280 1180 1257 1257 1298 1079 1079 924 816 760 760 697 636 515 289 289 295 22 nan nan nan nan nan nan nan nan nan nan nan nan nan nan nan nan nan nan nan nan 2 2 40 67 2 2 nan 1 1 366 425 392 392 451 653 885 843 843 581 475 411 411 385 304 226 226 140 86 86 55 49 38 38 28 20 17 18 18 24 28 35 35 33 31 28 28 23 16 16 11 7 5 5 5 11
69 57 39 54 46 46 50 41 31 31 93 863 1030 1030 1171 644 644 860 703 557 557 588 579 397 179 179 103 5 nan nan nan nan nan nan nan nan nan nan nan nan nan nan nan nan nan nan nan nan 1 1 15 52 23 23 nan 2 2 439 439 439 439 469 566 707 700 700 596 560 566 566 530 345 216 216 131 78 78 54 48 34 34 25 15 10 10 10 15 23 29 29 30 28 27 27 21 15 15 8 5 2 2 3 9
86 74 59 57 31 31 9 11 24 24 29 514 1009 1009 998 665 665 569 380 368 368 372 419 272 137 137 53 0 nan nan nan nan nan nan nan nan nan nan nan nan nan nan nan nan nan nan nan nan nan nan 5 33 25 25 0 278 278 423 485 486 486 486 551 582 540 540 536 574 655 655 583 417 230 230 143 88 88 67 53 41 41 27 14 6 9 9 14 21 26 26 27 25 23 23 19 13 13 6 3 2 2 5 11
107 89 74 62 59 59 20 6 9 9 16 151 942 942 641 421 421 336 301 243 243 237 297 161 101 101 22 nan nan nan nan nan nan nan nan nan nan nan nan nan nan nan nan nan nan nan nan nan nan nan 11 34 23 23 7 188 188 441 503 504 504 473 470 497 489 489 483 551 671 671 718 494 313 313 216 153 153 117 86 66 66 37 20 13 12 12 16 22 25 25 25 23 21 21 17 12 12 5 2 4 4 8 16
126 101 87 70 71 71 45 15 5 5 11 70 836 836 472 220 220 175 189 166 166 178 219 120 53 53 5 nan nan nan nan nan nan nan nan nan nan nan nan nan nan nan nan nan nan nan nan nan 1 1 7 15 23 23 11 83 83 461 557 524 524 462 424 448 439 439 460 566 730 730 784 624 443 443 355 283 283 233 171 115 115 56 32 25 25 25 26 27 26 26 25 23 21 21 17 10 10 3 1 4 4 10 19
146 119 93 85 76 76 55 31 2 2 7 27 572 572 301 162 162 102 107 110 110 144 174 73 16 16 nan nan nan nan nan nan nan nan nan nan nan nan nan nan nan nan nan nan nan nan nan nan 5 5 4 9 22 22 9 4 4 449 578 613 613 512 412 348 423 423 474 622 750 750 853 729 569 569 437 322 322 249 204 149 149 62 41 38 43 43 39 35 31 31 27 25 24 24 17 9 9 4 4 6 6 12 22
141 132 105 93 76 76 58 42 4 4 3 6 365 365 321 130 130 57 60 90 90 184 107 35 nan nan nan nan nan nan nan nan nan nan nan nan nan nan nan nan nan nan nan nan nan nan nan 1 7 7 14 20 27 27 4 nan nan 322 500 670 670 632 495 396 448 448 613 726 812 812 869 795 634 634 456 312 312 239 171 103 103 46 38 40 46 46 57 44 36 36 29 26 23 23 16 8 8 4 6 8 8 15 24
125 127 109 91 90 90 66 43 10 10 1 0 104 104 261 129 129 42 25 92 92 171 72 24 nan nan nan nan nan nan nan nan nan nan nan nan nan nan nan nan nan nan nan nan nan nan nan 2 11 11 17 23 33 33 23 87 87 140 316 656 656 810 695 546 550 550 830 902 882 882 845 816 619 619 413 274 274 184 123 61 61 34 31 31 36 36 49 44 39 39 32 25 22 22 14 8 8 5 9 12 12 21 27
117 117 101 96 102 102 86 45 7 7 nan 1 7 7 187 130 130 37 15 125 125 135 57 10 nan nan nan nan nan nan nan nan nan nan nan nan nan nan nan nan nan nan nan nan nan nan nan nan 5 5 13 24 34 34 58 54 54 59 157 443 443 687 767 780 754 754 1015 1054 963 963 867 756 605 605 374 217 217 134 87 48 48 35 32 30 34 34 35 39 39 39 33 26 19 19 13 8 8 8 15 16 16 22 26
105 100 87 87 101 101 103 52 5 5 1 5 2 2 101 124 124 31 39 162 162 93 48 7 nan nan nan nan nan nan nan nan nan nan nan nan nan nan nan nan nan nan nan nan nan nan nan nan 1 1 6 13 45 45 67 45 45 22 67 238 238 463 678 827 883 883 1115 1115 975 975 865 699 592 592 365 230 230 127 82 56 56 37 35 29 32 32 33 38 39 39 33 23 17 17 11 8 8 11 16 17 17 22 26
103 92 77 75 80 80 89 53 5 5 0 10 2 2 55 141 141 26 47 133 133 69 29 nan nan nan nan nan nan nan nan nan nan nan nan nan nan nan nan nan nan nan nan nan nan nan nan nan 1 1 5 4 31 31 69 31 31 nan 28 76 76 229 447 631 822 822 1101 1103 988 988 783 649 543 543 381 224 224 123 84 59 59 47 36 35 32 32 37 38 37 37 29 22 14 14 12 10 10 10 16 18 18 23 25
101 88 71 66 69 69 72 51 14 14 nan 10 2 2 29 159 159 27 68 100 100 45 20 nan nan nan nan nan nan nan nan nan nan nan nan nan nan nan nan nan nan nan nan nan nan nan nan 0 3 3 6 6 11 11 61 70 70 nan 2 18 18 73 191 324 582 582 890 938 889 889 731 641 496 496 368 239 239 138 76 52 52 54 54 41 37 37 36 36 33 33 25 17 14 14 12 10 10 12 16 19 19 24 25
105 87 68 61 55 55 60 38 15 15 nan 8 nan nan 12 134 134 85 98 47 47 49 19 nan nan nan nan nan nan nan nan nan nan nan nan nan nan nan nan nan nan nan nan nan nan nan nan 0 2 2 4 3 15 15 53 106 106 8 nan 0 0 14 58 109 252 252 516 594 584 584 560 519 454 454 389 304 304 171 81 50 50 59 77 64 41 41 34 32 27 27 20 16 12 12 11 12 12 12 15 20 20 25 26
103 82 68 53 49 49 40 26 14 14 nan 7 0 0 1 97 97 129 49 51 51 41 20 nan nan nan nan nan nan nan nan nan nan nan nan nan nan nan nan nan nan nan nan nan nan nan nan nan nan nan 0 0 4 4 24 84 84 46 nan nan nan nan 8 38 66 66 194 265 335 335 414 447 386 386 382 323 323 229 103 62 62 63 88 79 41 41 33 28 22 22 17 16 14 14 12 12 12 12 13 18 18 24 28
108 86 64 54 41 41 36 28 22 22 2 4 17 17 1 38 38 124 62 58 58 26 11 nan nan nan nan nan nan nan nan nan nan nan nan nan nan nan nan nan nan nan nan nan nan nan nan nan nan nan nan nan 0 0 9 55 55 61 7 nan nan nan nan 3 15 15 25 92 221 221 307 355 351 351 347 343 343 267 120 70 70 68 89 80 40 40 34 25 19 19 17 17 17 17 16 13 13 15 14 19 19 27 28
105 89 63 49 30 30 24 21 23 23 6 6 38 38 1 3 3 83 58 48 48 16 nan nan nan nan nan nan nan nan nan nan nan nan nan nan nan nan nan nan nan nan nan nan nan nan nan nan nan nan nan nan nan nan 0 30 30 67 42 nan nan nan nan 1 0 0 nan 23 163 163 331 324 295 295 342 363 363 281 154 71 71 75 88 71 41 41 34 28 23 23 19 18 24 24 19 16 16 17 18 24 24 29 29
100 88 72 51 34 34 26 13 7 7 5 12 38 38 2 1 1 59 87 39 39 14 nan nan nan nan nan nan nan nan nan nan nan nan nan nan nan nan nan nan nan nan nan nan nan nan nan nan nan nan nan nan nan nan 0 29 29 56 43 nan nan nan nan 0 4 4 nan 2 69 69 306 348 289 289 362 383 383 278 170 70 70 67 98 81 42 42 31 31 30 30 27 25 26 26 22 18 18 19 21 27 27 28 30
92 101 88 67 48 48 25 7 3 3 2 7 31 31 16 2 2 35 89 51 51 7 nan nan nan nan nan nan nan nan nan nan nan nan nan nan nan nan nan nan nan nan nan nan nan nan nan nan nan nan nan nan nan nan nan 14 14 35 49 40 40 nan nan 5 2 2 nan nan 7 7 151 322 304 304 354 348 348 272 151 81 81 59 87 88 44 44 34 38 48 48 38 32 31 31 25 21 21 23 27 30 30 33 29
106 104 98 78 44 44 18 7 2 2 1 3 25 25 26 7 7 6 57 42 42 0 nan nan nan nan nan nan nan nan nan nan nan nan nan nan nan nan nan nan nan nan nan nan nan nan nan nan nan nan nan nan nan nan nan 5 5 34 56 62 62 69 95 94 5 5 nan nan nan nan 25 187 274 274 345 316 316 246 136 81 81 68 85 81 52 52 40 65 90 90 72 53 35 35 31 28 28 28 33 37 37 35 35
144 110 103 77 35 35 13 9 2 2 1 4 14 14 14 32 32 2 32 39 39 nan 0 0 nan nan nan nan nan nan nan nan nan nan nan nan nan nan nan nan nan nan nan nan nan nan nan nan nan nan nan nan nan nan nan 2 2 34 54 71 71 106 121 92 20 20 nan nan nan nan nan 58 171 171 289 265 265 190 106 70 70 61 75 81 56 56 49 104 131 131 124 81 59 59 49 36 36 37 43 62 62 58 71
34 139 103 70 29 29 14 6 2 2 7 10 11 11 9 26 26 7 12 25 25 2 1 5 1 1 nan nan nan nan nan nan nan nan nan nan nan nan nan nan nan nan nan nan nan nan nan nan nan nan nan nan nan nan 0 1 1 22 30 82 82 93 92 78 24 24 5 nan nan nan nan 13 70 70 186 218 218 153 102 67 67 56 75 88 69 69 68 118 161 161 154 120 106 106 93 83 83 98 115 130 130 153 176
nan 74 99 58 28 28 11 5 5 5 8 17 14 14 9 16 16 5 8 24 24 5 10 13 7 7 nan nan nan nan nan nan nan nan nan nan nan nan nan nan nan nan nan nan nan nan nan nan nan nan nan nan nan nan 2 6 6 18 18 72 72 72 92 12 nan nan 0 nan nan nan nan 9 4 4 78 162 162 132 97 74 74 81 93 106 104 104 115 145 174 174 152 148 150 150 151 138 138 156 201 251 251 297 303
nan 9 78 52 30 30 12 9 13 13 12 22 26 26 10 6 6 5 8 27 27 15 28 25 13 13 4 nan nan nan nan nan nan nan nan nan nan nan nan nan nan nan nan nan nan nan nan nan nan nan nan nan 0 0 4 9 9 22 28 45 45 29 nan nan nan nan nan nan nan nan nan nan nan nan 22 77 77 100 104 125 125 109 124 140 152 152 169 187 184 184 161 159 162 162 182 170 170 215 258 312 312 393 400
0 1 nan 80 31 31 17 14 19 19 34 58 37 37 7 7 7 nan 14 26 26 38 71 61 12 12 1 4 nan nan nan nan nan nan nan nan nan 2 5 2 2 1 0 1 1 1 2 3 0 0 nan 0 0 0 0 3 3 6 3 nan nan nan nan nan nan nan nan nan nan nan 0 nan nan nan nan nan nan nan 7 25 25 37 92 173 206 206 222 233 209 209 189 178 224 224 309 339 339 342 364 443 443 477 486
0 0 0 34 55 55 33 20 23 23 36 77 44 44 14 35 35 19 43 34 34 34 55 60 16 16 0 2 nan nan nan nan nan nan nan 2 2 1 0 nan nan nan nan nan nan nan 1 4 0 0 nan 0 0 0 0 nan nan nan nan nan nan nan nan nan nan nan nan nan 0 0 nan nan nan nan nan nan nan nan nan 6 6 14 58 169 249 249 247 221 215 215 197 188 240 240 350 378 378 403 426 544 544 555 603
0 nan 0 nan 29 29 51 34 33 33 33 65 42 42 26 24 24 62 70 40 40 29 36 48 13 13 3 1 0 0 nan nan nan nan nan nan nan nan nan nan nan nan nan nan nan nan nan 0 0 0 0 1 2 2 0 nan nan nan nan nan nan nan nan nan nan nan nan nan nan nan nan nan nan nan nan nan nan nan nan 1 1 8 32 163 335 335 392 334 332 332 313 296 354 354 415 472 472 498 528 605 605 584 636
0 0 0 nan nan nan 57 52 31 31 23 21 22 22 25 26 26 32 46 27 27 27 19 33 29 29 0 2 1 1 nan nan nan nan nan nan nan nan nan nan nan nan nan nan nan nan nan nan nan nan nan nan nan nan nan nan nan nan nan nan nan nan nan nan nan nan nan nan nan nan nan nan nan nan nan nan nan nan 1 nan nan 1 16 103 324 324 474 301 355 355 476 421 457 457 493 523 523 591 636 650 650 669 676
0 0 0 0 nan nan 15 55 29 29 26 15 13 13 16 10 10 13 11 20 20 22 11 14 27 27 11 16 1 1 nan nan nan nan nan nan nan nan nan nan nan nan nan nan nan nan nan nan nan nan nan nan nan nan nan nan nan nan nan nan nan nan nan nan nan nan nan nan nan nan nan nan nan nan nan nan nan nan 2 nan nan nan 4 19 144 144 272 144 248 248 502 544 554 554 559 589 589 665 680 732 732 709 709
0 0 0 nan nan nan nan 5 42 42 30 17 11 11 10 nan nan nan 0 9 9 19 8 7 18 18 16 6 nan nan nan nan nan nan nan nan nan nan nan nan nan nan nan nan nan nan nan nan nan nan nan nan nan nan nan nan nan nan nan nan nan nan nan nan nan nan nan nan nan nan nan nan nan nan nan nan nan nan 0 8 8 nan nan 1 8 8 49 17 98 98 404 609 655 655 661 699 699 664 754 807 807 813 739
0 0 0 nan nan nan nan nan 45 45 35 12 3 3 1 nan nan nan nan 0 0 15 9 5 6 6 8 0 nan nan nan nan nan nan nan nan nan nan nan nan nan nan nan nan nan nan nan nan nan nan nan nan nan nan nan nan nan nan nan nan nan nan nan nan nan nan nan nan nan nan nan nan nan nan nan nan nan nan nan 4 4 36 nan nan nan nan 0 0 13 13 279 673 713 713 802 774 774 729 788 832 832 880 728
0 0 nan nan nan nan nan nan nan nan 11 2 5 5 nan nan nan nan nan 1 1 2 11 10 4 4 1 nan nan nan nan nan nan nan nan nan nan nan nan nan nan nan nan nan nan nan nan nan nan nan nan nan nan nan nan nan nan nan nan nan nan nan nan nan nan nan nan nan nan nan nan nan nan nan nan nan nan nan nan 0 0 31 22 3 nan nan nan nan 4 4 121 509 689 689 822 759 759 759 860 909 909 903 750
0 0 nan nan nan nan nan nan nan nan nan 4 12 12 4 1 1 nan nan nan nan 1 10 12 2 2 0 nan nan nan nan nan nan nan nan nan nan nan nan nan nan nan nan nan nan nan nan nan nan nan nan nan nan nan nan nan nan nan nan nan nan nan nan nan nan nan nan nan nan nan nan nan nan nan nan nan nan nan nan 0 0 24 94 73 12 12 nan nan nan nan 67 261 385 385 538 697 697 827 915 891 891 891 699
nan nan 0 nan nan nan nan nan 0 0 nan 13 33 33 12 6 6 2 0 nan nan nan 9 20 19 19 0 0 nan nan nan nan nan nan nan nan nan nan nan nan nan nan nan nan nan nan nan nan nan nan nan nan nan nan nan nan nan nan nan nan nan nan nan nan nan nan nan nan nan nan nan nan nan nan nan nan nan nan nan nan nan 4 108 80 7 7 nan nan nan nan nan 91 207 207 181 456 456 738 911 914 914 879 657
nan nan nan nan nan nan nan nan nan nan nan 10 68 68 54 31 31 6 7 2 2 nan 4 23 35 35 0 0 nan nan nan nan nan nan nan nan nan nan nan nan nan nan nan nan nan nan nan nan nan nan nan nan nan nan nan nan nan nan nan nan nan nan nan nan nan nan nan nan nan nan nan nan nan nan nan nan nan nan nan nan nan 0 67 126 14 14 4 nan nan nan nan nan 62 62 86 220 220 595 834 876 876 838 653
nan nan nan nan nan nan nan nan nan nan 0 nan 42 42 89 60 60 16 18 12 12 1 3 23 21 21 1 nan nan nan nan nan nan nan nan nan nan nan nan nan nan nan nan nan nan nan nan nan nan nan 0 0 nan nan nan nan nan nan nan nan nan nan nan nan nan nan nan nan nan nan nan nan nan nan nan nan nan nan nan nan nan nan 7 77 74 74 53 nan nan nan nan nan nan nan nan 166 166 365 643 758 758 754 581
nan nan nan nan nan nan nan nan nan nan nan nan nan nan 41 56 56 41 50 21 21 9 12 16 16 16 0 nan nan nan nan nan nan nan nan nan nan nan nan nan nan nan nan nan nan nan nan nan nan nan 0 0 nan nan nan nan nan nan nan nan nan nan nan nan nan nan nan nan 0 0 nan nan nan nan nan nan nan nan nan nan nan nan nan 19 8 8 nan nan nan nan nan nan nan nan nan 89 89 174 432 566 566 654 513
nan nan nan nan nan nan nan nan nan nan nan nan nan nan nan nan nan nan 0 32 32 12 7 4 5 5 nan nan nan nan nan nan nan nan nan nan nan nan nan nan nan nan nan nan nan nan nan nan nan nan nan 1 nan nan nan 0 0 nan 0 nan nan nan nan nan nan nan nan 0 0 0 0 0 nan nan 0 0 0 nan nan nan nan nan nan 0 1 1 nan nan nan nan nan nan nan nan nan 4 4 138 360 502 502 512 415
nan nan nan nan nan nan nan nan nan nan nan nan nan nan nan nan nan nan nan 9 9 13 4 0 nan nan nan nan nan nan nan nan nan nan nan nan nan nan nan nan nan nan nan 0 nan nan nan nan nan nan nan 1 1 1 1 0 0 0 0 nan nan nan nan nan nan nan nan 0 0 0 0 0 0 0 0 0 0 nan nan nan nan nan 0 1 18 18 9 nan nan nan nan nan nan nan nan nan nan 191 406 525 525 400 316
nan nan nan nan nan nan nan nan nan nan nan nan nan nan nan nan nan nan nan nan nan 16 4 2 nan nan nan nan nan nan nan nan nan nan nan nan nan nan nan nan nan nan nan nan nan nan nan nan nan nan nan 0 1 1 1 0 0 nan nan 0 0 0 nan nan nan nan nan 0 0 0 0 0 0 0 nan nan nan 0 nan nan nan nan 0 nan 14 14 14 nan nan nan nan nan nan nan nan 2 2 134 465 508 508 356 229
nan nan nan nan nan nan nan nan nan nan nan 0 nan nan nan nan nan nan nan nan nan nan 9 5 0 0 nan nan nan nan nan nan nan nan nan nan nan nan nan nan nan nan nan nan nan nan nan nan nan nan nan nan nan nan nan nan nan 0 0 0 0 0 0 nan nan nan 0 0 nan nan nan nan 0 0 0 0 0 0 nan nan nan nan 0 0 6 6 1 nan nan nan nan nan nan nan nan 0 0 77 429 407 407 295 185
nan nan nan nan nan nan nan nan nan nan nan nan nan nan nan nan nan nan nan nan nan nan nan 0 nan nan nan nan nan nan nan nan nan nan nan nan nan nan nan nan nan nan nan nan nan nan nan nan nan nan nan nan nan nan nan 0 0 1 0 0 0 0 nan nan 0 0 0 0 0 0 0 0 0 0 0 0 0 0 0 0 0 nan 0 0 0 0 4 1 nan nan nan nan nan nan nan nan nan 48 328 369 369 214 113
nan 0 nan nan nan nan nan nan nan nan 0 0 nan nan nan 0 0 nan nan nan nan nan nan nan nan nan nan nan nan nan nan nan nan nan nan nan nan nan nan nan nan nan nan nan nan nan nan nan nan nan nan nan nan nan nan 0 0 1 1 1 1 0 0 0 1 1 1 1 0 0 0 0 0 0 0 0 0 0 0 0 0 nan nan 0 nan nan 0 3 0 0 nan nan nan nan nan nan nan 27 232 301 301 145 98